Showing default

ORBCOMM FM 112, 41184

Orbit data source: Space-Track

ORBCOMM FM 112, 41184 is a payload satellite owned by Orbcomm (US) in LEO that was launched on Tue, 22 Dec 2015 UTC via an FALCON 9 launch vehicle from the Air Force Eastern Test Range (AFETR). Payloads include a variety of satellites, spacecraft, and rockets equipped with specific instruments for various scientific and technological missions. These include communications satellites like Starlink; space stations such as the ISS; scientific satellites like the Hubble; Earth observation satellites from companies like Planet Labs, Umbra, and HawkEye 360; GPS; miniature CubeSats for education and research; and military/defense satellites.

Loading next visibility...
ORBCOMM FM 112 details
Identifier
41184, 2015-081F
Orbit
LEO
Last TLE update7 hours ago
Origin
Flag of USOrbcomm (US / ORB)
ManufacturerSNC Louisville
MissionOperational Commercial Communications
Bus & MotorSN-100A, Unknown motor
Mass172 kg wet, 158 kg dry
Launch date (UTC)
2015-12-22 (9 years ago)
Launch vehicle
FALCON 9
Launch site
Air Force Eastern Test Range (AFETR)
Object type
Payload
Rocket body
Debris
Shape & HBRBox + 1 Pan + 1 Ant, 13 m
Radar Cross Section2.222 m², Medium (>0.1 m² and < 1m²)

Expand to show TLE details & history

TLE from 7 hours ago
0 ORBCOMM FM 112
1 41184U 15081F   24361.19909849  .00003320  00000-0  75800-3 0  9999
2 41184  46.9987 292.0352 0001721 314.5666  45.5079 14.57620378480429
Epoch: 2024-12-26T04:46Z
Definitive object data (Epoch: 2024-12-26T04:46:42.109Z)
Latitude0.00001°
Longitude125.17783°
Altitude700.229 km
Speed7.508 km/s
True Right ascension19h 28m 08s
True Declination0° 00' 00"
Sunlit
Object was in daylight at TLE epoch
Visualization TLE readout
Latitude10.18533°
Longitude-65.85863°
Altitude701.384 km
Speed7.507 km/s
Apparent Right ascension04h 01m 04s
Apparent Declination-21° 41' 44"
Sunlit
Object is in full shadow
Visualization observer readout
Local Sidereal Time11:28:28
Azimuth265.911° W
Elevation-30.161°
Doppler factor1
Orbital elements
Apogee altitude703.321 km
Perigee altitude700.884 km
Semi-major axis7,080.24 km
Eccentricity0.0001721
Inclination46.9987°
RAAN292.0352°
Arg. of periapsis314.5666°
True anomaly45.52197°
Mean anomaly45.5079°
Eccentric anomaly45.51493°
Mean motion3.6431 °/min
BSTAR0.000758
Orbital period98.82 mins
Loading maneuver chart data...
Loading historical data...
Loading historical data...
Loading historical data...
Loading historical data...
Loading historical data...
Loading historical data...
Loading historical data...

ORBCOMM FM 112 Visibility forecast

Observer location: undefined°, undefined

Span
Click to sort rows by Start time (UTC) header in descending order
Start Az.
Max El. time (UTC)
Max El. Az.
Max El.
End time (UTC)
End Az.
6 mins2024-12-26 21:23:01.094Z173.854° S2024-12-26 21:26:01.094Z132.416° SE18.469°2024-12-26 21:29:01.094Z92.65° ESE
8 mins2024-12-26 23:05:01.094Z237.431° WSW2024-12-26 23:09:01.094Z123.454° SE44.844°2024-12-26 23:13:01.094Z63.002° ENE
7 mins2024-12-27 00:50:01.094Z290.673° WNW2024-12-27 00:53:01.094Z354.646° N33.101°2024-12-27 00:57:01.094Z57.224° ENE
7 mins2024-12-27 02:34:01.094Z309.085° NW2024-12-27 02:37:01.094Z4.927° NNE32.609°2024-12-27 02:41:01.094Z75.227° E
8 mins2024-12-27 04:18:01.094Z298.244° NW2024-12-27 04:21:01.094Z297.505° NW44.946°2024-12-27 04:26:01.094Z119.597° SE
5 mins2024-12-27 06:02:01.094Z258.482° W2024-12-27 06:04:01.094Z228.215° WSW20.003°2024-12-27 06:07:01.094Z184.374° SSW
|